CubeBel-2 (EU11S)
1 57175U 23091K   26215.60869678  .00013732  00000-0  47088-3 0  9992
2 57175  97.5011 279.2778 0007865 311.8609  48.1960 15.30266497171556
RS-38S
1 57189U 23091Z   26215.61629516  .00018135  00000-0  49515-3 0  9992
2 57189  97.5055 286.0933 0005475 252.5669 107.4977 15.37462273171970
SONATE-2
1 59112U 24043Q   26215.39789011  .00047284  00000-0  53318-3 0  9993
2 59112  97.5578   8.8336 0005554  36.6505 323.5132 15.62376786135259
GRBBeta
1 60237U 24128C   26215.00525610  .00003874  00000-0  26884-3 0  9993
2 60237  61.9898  51.9681 0034398 144.9535 215.3832 15.06935733113325
Curium One
1 60242U 24128H   26215.49585321  .00008434  00000-0  47912-3 0  9999
2 60242  61.9787  38.1359 0033438 140.9230 219.4290 15.13142342113618
ROBUSTA-3A
1 60243U 24128J   26215.48790358  .00008301  00000-0  48274-3 0  9992
2 60243  61.9866  40.9015 0035347 137.7130 222.6701 15.12262272113573
CatSat
1 60246U 24125J   26215.10874033  .00082545  00000-0  83418-3 0  9995
2 60246  97.2033  68.4171 0016818  12.8625 347.3061 15.64883100114713
HYPERVIEW-1G (RS66S)
1 61772U 24199AP  26215.62005694  .00616803  16679-3  13681-2 0  9993
2 61772  97.2705  98.3294 0006631 141.2430 218.9325 15.97923083142184
AO-123
1 61781U 24199AY  26215.59181109  .00008521  00000-0  24200-3 0  9995
2 61781  97.2930  83.8394 0014965 133.3472 226.9022 15.36321919141209
LASARsat
1 62391U 24247Q   26215.41266446  .00038988  00000-0  69750-3 0  9995
2 62391  44.9746 356.2618 0009769 281.1024  78.8768 15.49346226 90631
CroCube
1 62394U 24247T   26215.60365302  .00048460  00000-0  79388-3 0  9994
2 62394  44.9723 351.6545 0009934 289.1476  70.8340 15.51736544 90705
JINJUSat 1B
1 63210U 25052A   26215.43187451  .00017015  00000-0  50389-3 0  9997
2 63210  97.3932 112.2828 0000824 279.2684  80.8466 15.34942450 77343
NUSHSAT 1
1 63211U 25052B   26215.45908745  .00023795  00000-0  64179-3 0  9991
2 63211  97.3906 113.0506 0000386 320.3615  39.7602 15.37796163 77405
TEVEL2-4
1 63213U 25052D   26215.43124136  .00019731  00000-0  56014-3 0  9999
2 63213  97.3830 111.9388 0001056  10.2442 349.8824 15.36238783 77360
TEVEL2-5
1 63214U 25052E   26215.65285692  .00020740  00000-0  59220-3 0  9993
2 63214  97.3826 112.0948 0001131  14.7655 345.3621 15.36047619 77394
TEVEL2-6
1 63215U 25052F   26215.27540235  .00019010  00000-0  54402-3 0  9994
2 63215  97.3831 111.7009 0001205  20.8684 339.2609 15.35995063 77333
TEVEL2-1
1 63217U 25052H   26215.25649889  .00018507  00000-0  53979-3 0  9997
2 63217  97.3804 111.2479 0001810  19.2522 340.8790 15.35403445 77311
TEVEL2-3
1 63218U 25052J   26215.50993288  .00020454  00000-0  59469-3 0  9995
2 63218  97.3807 111.5307 0001791  27.6823 332.4516 15.35482149 77358
TEVEL2-2
1 63219U 25052K   26215.25648306  .00018857  00000-0  54970-3 0  9992
2 63219  97.3805 111.2514 0001979  17.0428 343.0882 15.35416099 77317
TEVEL2-9
1 63237U 25052AD  26215.23125298  .00016521  00000-0  51495-3 0  9995
2 63237  97.3867 110.4954 0005188 358.3635   1.7589 15.33312255 77231
TEVEL2-7
1 63238U 25052AE  26215.21645912  .00016408  00000-0  51680-3 0  9994
2 63238  97.3866 110.3753 0005332 357.4963   2.6251 15.32979707 77227
TEVEL2-8
1 63239U 25052AF  26214.70294636  .00017322  00000-0  54583-3 0  9992
2 63239  97.3870 109.8381 0005422   1.0673 359.0580 15.32952526 77148
SPIRONE
1 66657U 25274H   26215.35045453  .00002509  00000-0  24212-3 0  9995
2 66657  97.7466 143.9711 0011015 210.1638 149.8948 14.93722773 37262
K-HERO
1 66660U 25274L   26215.34211130  .00001956  00000-0  18806-3 0  9992
2 66660  97.7476 144.1584 0012813 216.4982 143.5366 14.94124105 37278
SNUGLITE-III DURI
1 66661U 25274M   26215.59679820  .00001282  00000-0  12497-3 0  9996
2 66661  97.7472 144.4306 0013449 217.1179 142.9113 14.94144917 37313
SAKHACUBE-CHOLBON
1 67290U 25313AU  26215.19808615  .00009235  00000-0  36481-3 0  9996
2 67290  97.3901 289.6654 0009377 179.9057 180.2185 15.25688219 33142
RS95S (QMR-KWT-2)
1 67291U 25313AV  26215.13768490  .00014303  00000-0  53400-3 0  9999
2 67291  97.3902 289.8902 0009120 177.6434 182.4850 15.27454853 33153
Ten-Koh2
1 68261U 25241B   26214.89739208  .00007233  00000-0  30435-3 0  9991
2 68261  51.6536  97.2350 0005270 292.6874  67.3547 15.24395215 22035
JACK-002
1 68417U 26067B   26214.84638183  .00006620  00000-0  31107-3 0  9992
2 68417  97.4602 172.8855 0004055 102.9171 257.2517 15.19929874 19034
DISCO 2
1 68431U 26067R   26215.59967869  .00007950  00000-0  37485-3 0  9999
2 68431  97.4636 173.6216 0002860 139.4400 220.7048 15.19747068 19148
HADES-SA (SpinnyONE)
1 68446U 26067AG  26215.62538379  .00020119  00000-0  91830-3 0  9995
2 68446  97.4433 173.2700 0003872 268.9010  91.1782 15.20632612 19136
PARUS-6U1
1 68456U 26067AS  26215.39357265  .00005028  00000-0  25071-3 0  9999
2 68456  97.4587 173.0544 0003565 254.8554 105.2286 15.17980988 19096
SAL-E
1 68458U 26067AU  26215.37879693  .00007848  00000-0  38468-3 0  9999
2 68458  97.4509 172.9524 0003635 269.4699  90.6119 15.18401517 19097
FSI-SAT 2
1 68792U 26088A   26215.36222695  .00004602  00000-0  30944-3 0  9992
2 68792  97.5132   3.4634 0013193 309.5721  50.4341 15.07174149 15399
OrigamiSat 2
1 68795U 26088D   26215.36829471  .00012131  00000-0  75409-3 0  9991
2 68795  97.5127   3.7644 0013668 275.9686  83.9985 15.09715371 15411
ARICA 2
1 68796U 26088E   26215.38731007  .00003345  00000-0  21652-3 0  9999
2 68796  97.5122   3.7237 0013971 277.2534  82.7107 15.08764745 15410
WASEDA-SAT-ZERO-II
1 68797U 26088F   26215.37409629  .00005554  00000-0  35336-3 0  9999
2 68797  97.5118   3.7380 0013974 276.4940  83.4698 15.09118596 15411
MANGARO-II-Piscus
1 68798U 26088G   26215.36286758  .00003695  00000-0  23642-3 0  9996
2 68798  97.5131   3.7663 0017472 280.1977  79.7281 15.09085054 15418
MARINA
1 69920U 26156BD  26215.23567075  .00001570  00000-0  16018-3 0  9999
2 69920  97.7502 115.2540 0009038  69.0958 291.1228 14.92025317  4017
IO-86
1 40931U          26199.45381863  .00000000  00000-0  77536-4 0    07
2 40931   6.0006 322.6653 0012733 338.8432 273.6875 14.79294310    03
LILIUM-4                
1 71922C 26067AC  26089.50133053 -.00014632  00000+0 -74472-3 0    04
2 71922  97.4497  49.1617 0004341   5.9603 355.7042 15.16896692    16
